Year,Month,Day,Hour,Minute,Value (Times are PST for temperature in C)
2016,04,18,00,00,12.00
2016,04,18,00,01,12.00
2016,04,18,00,02,12.10
2016,04,18,00,03,12.10
2016,04,18,00,04,12.10
2016,04,18,00,05,12.10
2016,04,18,00,06,12.10
2016,04,18,00,07,12.20
2016,04,18,00,08,12.20
2016,04,18,00,09,12.20
2016,04,18,00,10,12.20
2016,04,18,00,11,12.20
2016,04,18,00,12,12.20
2016,04,18,00,13,12.20
2016,04,18,00,14,12.10
2016,04,18,00,15,12.10
2016,04,18,00,16,12.10
2016,04,18,00,17,12.10
2016,04,18,00,18,12.10
2016,04,18,00,19,12.10
2016,04,18,00,20,12.00
2016,04,18,00,21,12.00
2016,04,18,00,22,11.90
2016,04,18,00,23,11.90
2016,04,18,00,24,11.90
2016,04,18,00,25,12.00
2016,04,18,00,26,12.00
2016,04,18,00,27,12.00
2016,04,18,00,28,12.10
2016,04,18,00,29,12.10
2016,04,18,00,30,12.10
2016,04,18,00,31,12.00
2016,04,18,00,32,12.00
2016,04,18,00,33,12.00
2016,04,18,00,34,11.90
2016,04,18,00,35,11.90
2016,04,18,00,36,11.90
2016,04,18,00,37,11.90
2016,04,18,00,38,11.90
2016,04,18,00,39,11.90
2016,04,18,00,40,11.90
2016,04,18,00,41,11.90
2016,04,18,00,42,11.90
2016,04,18,00,43,11.90
2016,04,18,00,44,11.90
2016,04,18,00,45,11.90
2016,04,18,00,46,11.90
2016,04,18,00,47,11.90
2016,04,18,00,48,11.90
2016,04,18,00,49,11.90
2016,04,18,00,50,11.90
2016,04,18,00,51,11.90
2016,04,18,00,52,11.90
2016,04,18,00,53,11.90
2016,04,18,00,54,12.00
2016,04,18,00,55,12.00
2016,04,18,00,56,12.10
2016,04,18,00,57,12.10
2016,04,18,00,58,12.10
2016,04,18,00,59,12.10
2016,04,18,01,00,12.20
2016,04,18,01,01,12.20
2016,04,18,01,02,12.20
2016,04,18,01,03,12.20
2016,04,18,01,04,12.20
2016,04,18,01,05,12.20
2016,04,18,01,06,12.20
2016,04,18,01,07,12.30
2016,04,18,01,08,12.30
2016,04,18,01,09,12.30
2016,04,18,01,10,12.30
2016,04,18,01,11,12.20
2016,04,18,01,12,12.30
2016,04,18,01,13,12.30
2016,04,18,01,14,12.30
2016,04,18,01,15,12.30
2016,04,18,01,16,12.30
2016,04,18,01,17,12.30
2016,04,18,01,18,12.30
2016,04,18,01,19,12.30
2016,04,18,01,20,12.30
2016,04,18,01,21,12.30
2016,04,18,01,22,12.30
2016,04,18,01,23,12.30
2016,04,18,01,24,12.30
2016,04,18,01,25,12.40
2016,04,18,01,26,12.40
2016,04,18,01,27,12.40
2016,04,18,01,28,12.40
2016,04,18,01,29,12.40
2016,04,18,01,30,12.40
2016,04,18,01,31,12.40
2016,04,18,01,32,12.40
2016,04,18,01,33,12.40
2016,04,18,01,34,12.40
2016,04,18,01,35,12.40
2016,04,18,01,36,12.40
2016,04,18,01,37,12.40
2016,04,18,01,38,12.40
2016,04,18,01,39,12.40
2016,04,18,01,40,12.40
2016,04,18,01,41,12.40
2016,04,18,01,42,12.40
2016,04,18,01,43,12.40
2016,04,18,01,44,12.40
2016,04,18,01,45,12.30
2016,04,18,01,46,12.30
2016,04,18,01,47,12.30
2016,04,18,01,48,12.20
2016,04,18,01,49,12.20
2016,04,18,01,50,12.20
2016,04,18,01,51,12.20
2016,04,18,01,52,12.20
2016,04,18,01,53,12.20
2016,04,18,01,54,12.20
2016,04,18,01,55,12.20
2016,04,18,01,56,12.20
2016,04,18,01,57,12.20
2016,04,18,01,58,12.20
2016,04,18,01,59,12.20
2016,04,18,02,00,12.20
2016,04,18,02,01,12.20
2016,04,18,02,02,12.20
2016,04,18,02,03,12.20
2016,04,18,02,04,12.10
2016,04,18,02,05,12.10
2016,04,18,02,06,12.10
2016,04,18,02,07,12.00
2016,04,18,02,08,12.00
2016,04,18,02,09,11.90
2016,04,18,02,10,11.90
2016,04,18,02,11,11.90
2016,04,18,02,12,11.80
2016,04,18,02,13,11.80
2016,04,18,02,14,11.70
2016,04,18,02,15,11.70
2016,04,18,02,16,11.70
2016,04,18,02,17,11.70
2016,04,18,02,18,11.60
2016,04,18,02,19,11.60
2016,04,18,02,20,11.60
2016,04,18,02,21,11.60
2016,04,18,02,22,11.60
2016,04,18,02,23,11.60
2016,04,18,02,24,11.60
2016,04,18,02,25,11.70
2016,04,18,02,26,11.70
2016,04,18,02,27,11.70
2016,04,18,02,28,11.70
2016,04,18,02,29,11.80
2016,04,18,02,30,11.80
2016,04,18,02,31,11.80
2016,04,18,02,32,11.80
2016,04,18,02,33,11.70
2016,04,18,02,34,11.70
2016,04,18,02,35,11.70
2016,04,18,02,36,11.70
2016,04,18,02,37,11.70
2016,04,18,02,38,11.70
2016,04,18,02,39,11.70
2016,04,18,02,40,11.60
2016,04,18,02,41,11.60
2016,04,18,02,42,11.60
2016,04,18,02,43,11.60
2016,04,18,02,44,11.60
2016,04,18,02,45,11.50
2016,04,18,02,46,11.50
2016,04,18,02,47,11.40
2016,04,18,02,48,11.40
2016,04,18,02,49,11.40
2016,04,18,02,50,11.40
2016,04,18,02,51,11.40
2016,04,18,02,52,11.40
2016,04,18,02,53,11.40
2016,04,18,02,54,11.40
2016,04,18,02,55,11.40
2016,04,18,02,56,11.30
2016,04,18,02,57,11.30
2016,04,18,02,58,11.30
2016,04,18,02,59,11.30
2016,04,18,03,00,11.30
2016,04,18,03,01,11.30
2016,04,18,03,02,11.30
2016,04,18,03,03,11.30
2016,04,18,03,04,11.30
2016,04,18,03,05,11.30
2016,04,18,03,06,11.30
2016,04,18,03,07,11.30
2016,04,18,03,08,11.20
2016,04,18,03,09,11.20
2016,04,18,03,10,11.20
2016,04,18,03,11,11.20
2016,04,18,03,12,11.20
2016,04,18,03,13,11.20
2016,04,18,03,14,11.10
2016,04,18,03,15,11.10
2016,04,18,03,16,11.10
2016,04,18,03,17,11.10
2016,04,18,03,18,11.00
2016,04,18,03,19,11.00
2016,04,18,03,20,11.00
2016,04,18,03,21,11.00
2016,04,18,03,22,11.00
2016,04,18,03,23,11.00
2016,04,18,03,24,11.00
2016,04,18,03,25,11.00
2016,04,18,03,26,11.00
2016,04,18,03,27,11.00
2016,04,18,03,28,11.00
2016,04,18,03,29,11.00
2016,04,18,03,30,11.00
2016,04,18,03,31,10.90
2016,04,18,03,32,10.90
2016,04,18,03,33,10.90
2016,04,18,03,34,10.90
2016,04,18,03,35,10.80
2016,04,18,03,36,10.80
2016,04,18,03,37,10.80
2016,04,18,03,38,10.80
2016,04,18,03,39,10.80
2016,04,18,03,40,10.80
2016,04,18,03,41,10.80
2016,04,18,03,42,10.80
2016,04,18,03,43,10.80
2016,04,18,03,44,10.80
2016,04,18,03,45,10.80
2016,04,18,03,46,10.80
2016,04,18,03,47,10.80
2016,04,18,03,48,10.80
2016,04,18,03,49,10.80
2016,04,18,03,50,10.80
2016,04,18,03,51,10.80
2016,04,18,03,52,10.80
2016,04,18,03,53,10.80
2016,04,18,03,54,10.80
2016,04,18,03,55,10.80
2016,04,18,03,56,10.80
2016,04,18,03,57,10.70
2016,04,18,03,58,10.70
2016,04,18,03,59,10.70
2016,04,18,04,00,10.70
2016,04,18,04,01,10.70
2016,04,18,04,02,10.70
2016,04,18,04,03,10.70
2016,04,18,04,04,10.70
2016,04,18,04,05,10.70
2016,04,18,04,06,10.70
2016,04,18,04,07,10.70
2016,04,18,04,08,10.70
2016,04,18,04,09,10.70
2016,04,18,04,10,10.70
2016,04,18,04,11,10.70
2016,04,18,04,12,10.70
2016,04,18,04,13,10.70
2016,04,18,04,14,10.70
2016,04,18,04,15,10.70
2016,04,18,04,16,10.70
2016,04,18,04,17,10.70
2016,04,18,04,18,10.70
2016,04,18,04,19,10.70
2016,04,18,04,20,10.70
2016,04,18,04,21,10.70
2016,04,18,04,22,10.60
2016,04,18,04,23,10.60
2016,04,18,04,24,10.60
2016,04,18,04,25,10.60
2016,04,18,04,26,10.60
2016,04,18,04,27,10.60
2016,04,18,04,28,10.60
2016,04,18,04,29,10.60
2016,04,18,04,30,10.50
2016,04,18,04,31,10.50
2016,04,18,04,32,10.50
2016,04,18,04,33,10.40
2016,04,18,04,34,10.40
2016,04,18,04,35,10.40
2016,04,18,04,36,10.40
2016,04,18,04,37,10.40
2016,04,18,04,38,10.40
2016,04,18,04,39,10.30
2016,04,18,04,40,10.30
2016,04,18,04,41,10.30
2016,04,18,04,42,10.30
2016,04,18,04,43,10.30
2016,04,18,04,44,10.30
2016,04,18,04,45,10.30
2016,04,18,04,46,10.30
2016,04,18,04,47,10.30
2016,04,18,04,48,10.30
2016,04,18,04,49,10.30
2016,04,18,04,50,10.30
2016,04,18,04,51,10.30
2016,04,18,04,52,10.20
2016,04,18,04,53,10.20
2016,04,18,04,54,10.20
2016,04,18,04,55,10.20
2016,04,18,04,56,10.20
2016,04,18,04,57,10.20
2016,04,18,04,58,10.20
2016,04,18,04,59,10.10
2016,04,18,05,00,10.10
2016,04,18,05,01,10.10
2016,04,18,05,02,10.10
2016,04,18,05,03,10.10
2016,04,18,05,04,10.10
2016,04,18,05,05,10.10
2016,04,18,05,06,10.10
2016,04,18,05,07,10.10
2016,04,18,05,08,10.10
2016,04,18,05,09,10.10
2016,04,18,05,10,10.10
2016,04,18,05,11,10.10
2016,04,18,05,12,10.10
2016,04,18,05,13,10.10
2016,04,18,05,14,10.10
2016,04,18,05,15,10.00
2016,04,18,05,16,10.00
2016,04,18,05,17,10.10
2016,04,18,05,18,10.10
2016,04,18,05,19,10.10
2016,04,18,05,20,10.10
2016,04,18,05,21,10.10
2016,04,18,05,22,10.10
2016,04,18,05,23,10.00
2016,04,18,05,24,10.00
2016,04,18,05,25,10.00
2016,04,18,05,26,9.90
2016,04,18,05,27,9.90
2016,04,18,05,28,9.90
2016,04,18,05,29,9.90
2016,04,18,05,30,9.90
2016,04,18,05,31,9.90
2016,04,18,05,32,9.90
2016,04,18,05,33,9.90
2016,04,18,05,34,9.90
2016,04,18,05,35,9.90
2016,04,18,05,36,9.90
2016,04,18,05,37,9.90
2016,04,18,05,38,9.90
2016,04,18,05,39,9.90
2016,04,18,05,40,9.90
2016,04,18,05,41,9.90
2016,04,18,05,42,9.90
2016,04,18,05,43,9.90
2016,04,18,05,44,9.90
2016,04,18,05,45,9.90
2016,04,18,05,46,9.80
2016,04,18,05,47,9.80
2016,04,18,05,48,9.80
2016,04,18,05,49,9.80
2016,04,18,05,50,9.80
2016,04,18,05,51,9.80
2016,04,18,05,52,9.80
2016,04,18,05,53,9.80
2016,04,18,05,54,9.80
2016,04,18,05,55,9.80
2016,04,18,05,56,9.80
2016,04,18,05,57,9.80
2016,04,18,05,58,9.70
2016,04,18,05,59,9.70
2016,04,18,06,00,9.70
2016,04,18,06,01,9.70
2016,04,18,06,02,9.70
2016,04,18,06,03,9.70
2016,04,18,06,04,9.70
2016,04,18,06,05,9.70
2016,04,18,06,06,9.70
2016,04,18,06,07,9.70
2016,04,18,06,08,9.70
2016,04,18,06,09,9.70
2016,04,18,06,10,9.70
2016,04,18,06,11,9.70
2016,04,18,06,12,9.70
2016,04,18,06,13,9.80
2016,04,18,06,14,9.90
2016,04,18,06,15,9.90
2016,04,18,06,16,9.90
2016,04,18,06,17,9.90
2016,04,18,06,18,9.90
2016,04,18,06,19,9.90
2016,04,18,06,20,9.90
2016,04,18,06,21,9.90
2016,04,18,06,22,9.90
2016,04,18,06,23,9.90
2016,04,18,06,24,9.90
2016,04,18,06,25,9.90
2016,04,18,06,26,9.80
2016,04,18,06,27,9.80
2016,04,18,06,28,9.80
2016,04,18,06,29,9.80
2016,04,18,06,30,9.80
2016,04,18,06,31,9.70
2016,04,18,06,32,9.70
2016,04,18,06,33,9.70
2016,04,18,06,34,9.70
2016,04,18,06,35,9.70
2016,04,18,06,36,9.70
2016,04,18,06,37,9.70
2016,04,18,06,38,9.70
2016,04,18,06,39,9.70
2016,04,18,06,40,9.70
2016,04,18,06,41,9.70
2016,04,18,06,42,9.80
2016,04,18,06,43,9.70
2016,04,18,06,44,9.80
2016,04,18,06,45,9.80
2016,04,18,06,46,9.80
2016,04,18,06,47,9.80
2016,04,18,06,48,9.80
2016,04,18,06,49,9.80
2016,04,18,06,50,9.80
2016,04,18,06,51,9.90
2016,04,18,06,52,9.90
2016,04,18,06,53,9.90
2016,04,18,06,54,9.90
2016,04,18,06,55,9.90
2016,04,18,06,56,9.90
2016,04,18,06,57,9.90
2016,04,18,06,58,9.90
2016,04,18,06,59,10.00
2016,04,18,07,00,10.00
2016,04,18,07,01,10.00
2016,04,18,07,02,10.10
2016,04,18,07,03,10.10
2016,04,18,07,04,10.10
2016,04,18,07,05,10.10
2016,04,18,07,06,10.20
2016,04,18,07,07,10.20
2016,04,18,07,08,10.20
2016,04,18,07,09,10.30
2016,04,18,07,10,10.30
2016,04,18,07,11,10.30
2016,04,18,07,12,10.30
2016,04,18,07,13,10.40
2016,04,18,07,14,10.40
2016,04,18,07,15,10.50
2016,04,18,07,16,10.50
2016,04,18,07,17,10.60
2016,04,18,07,18,10.60
2016,04,18,07,19,10.70
2016,04,18,07,20,10.80
2016,04,18,07,21,10.80
2016,04,18,07,22,10.80
2016,04,18,07,23,10.90
2016,04,18,07,24,10.90
2016,04,18,07,25,11.00
2016,04,18,07,26,11.00
2016,04,18,07,27,11.10
2016,04,18,07,28,11.20
2016,04,18,07,29,11.20
2016,04,18,07,30,11.30
2016,04,18,07,31,11.30
2016,04,18,07,32,11.30
2016,04,18,07,33,11.40
2016,04,18,07,34,11.40
2016,04,18,07,35,11.40
2016,04,18,07,36,11.50
2016,04,18,07,37,11.50
2016,04,18,07,38,11.60
2016,04,18,07,39,11.60
2016,04,18,07,40,11.60
2016,04,18,07,41,11.60
2016,04,18,07,42,11.70
2016,04,18,07,43,11.70
2016,04,18,07,44,11.70
2016,04,18,07,45,11.70
2016,04,18,07,46,11.80
2016,04,18,07,47,11.80
2016,04,18,07,48,11.90
2016,04,18,07,49,11.90
2016,04,18,07,50,12.00
2016,04,18,07,51,12.10
2016,04,18,07,52,12.20
2016,04,18,07,53,12.20
2016,04,18,07,54,12.30
2016,04,18,07,55,12.30
2016,04,18,07,56,12.40
2016,04,18,07,57,12.40
2016,04,18,07,58,12.50
2016,04,18,07,59,12.50
2016,04,18,08,00,12.60
2016,04,18,08,01,12.60
2016,04,18,08,02,12.60
2016,04,18,08,03,12.70
2016,04,18,08,04,12.70
2016,04,18,08,05,12.70
2016,04,18,08,06,12.80
2016,04,18,08,07,12.80
2016,04,18,08,08,12.90
2016,04,18,08,09,12.90
2016,04,18,08,10,13.00
2016,04,18,08,11,13.10
2016,04,18,08,12,13.20
2016,04,18,08,13,13.30
2016,04,18,08,14,13.50
2016,04,18,08,15,13.60
2016,04,18,08,16,13.80
2016,04,18,08,17,13.90
2016,04,18,08,18,14.10
2016,04,18,08,19,14.20
2016,04,18,08,20,14.40
2016,04,18,08,21,14.50
2016,04,18,08,22,14.60
2016,04,18,08,23,14.80
2016,04,18,08,24,14.90
2016,04,18,08,25,15.00
2016,04,18,08,26,15.20
2016,04,18,08,27,15.30
2016,04,18,08,28,15.50
2016,04,18,08,29,15.70
2016,04,18,08,30,15.80
2016,04,18,08,31,15.90
2016,04,18,08,32,16.00
2016,04,18,08,33,16.10
2016,04,18,08,34,16.30
2016,04,18,08,35,16.40
2016,04,18,08,36,16.50
2016,04,18,08,37,16.60
2016,04,18,08,38,16.80
2016,04,18,08,39,16.90
2016,04,18,08,40,17.00
2016,04,18,08,41,17.00
2016,04,18,08,42,17.10
2016,04,18,08,43,17.10
2016,04,18,08,44,17.20
2016,04,18,08,45,17.30
2016,04,18,08,46,17.50
2016,04,18,08,47,17.60
2016,04,18,08,48,17.70
2016,04,18,08,49,17.80
2016,04,18,08,50,17.90
2016,04,18,08,51,18.00
2016,04,18,08,52,18.10
2016,04,18,08,53,18.10
2016,04,18,08,54,18.20
2016,04,18,08,55,18.20
2016,04,18,08,56,18.30
2016,04,18,08,57,18.40
2016,04,18,08,58,18.40
2016,04,18,08,59,18.40
2016,04,18,09,00,18.50
2016,04,18,09,01,18.60
2016,04,18,09,02,18.70
2016,04,18,09,03,18.70
2016,04,18,09,04,18.70
2016,04,18,09,05,18.80
2016,04,18,09,06,18.90
2016,04,18,09,07,19.00
2016,04,18,09,08,19.10
2016,04,18,09,09,19.20
2016,04,18,09,10,19.20
2016,04,18,09,11,19.20
2016,04,18,09,12,19.20
2016,04,18,09,13,19.10
2016,04,18,09,14,19.10
2016,04,18,09,15,19.10
2016,04,18,09,16,19.10
2016,04,18,09,17,19.10
2016,04,18,09,18,19.10
2016,04,18,09,19,19.10
2016,04,18,09,20,19.00
2016,04,18,09,21,19.00
2016,04,18,09,22,18.90
2016,04,18,09,23,18.80
2016,04,18,09,24,18.80
2016,04,18,09,25,18.80
2016,04,18,09,26,18.90
2016,04,18,09,27,18.90
2016,04,18,09,28,19.00
2016,04,18,09,29,19.10
2016,04,18,09,30,19.10
2016,04,18,09,31,19.10
2016,04,18,09,32,19.00
2016,04,18,09,33,18.90
2016,04,18,09,34,18.90
2016,04,18,09,35,18.90
2016,04,18,09,36,19.00
2016,04,18,09,37,19.00
2016,04,18,09,38,19.00
2016,04,18,09,39,18.90
2016,04,18,09,40,18.90
2016,04,18,09,41,18.90
2016,04,18,09,42,18.90
2016,04,18,09,43,18.90
2016,04,18,09,44,18.90
2016,04,18,09,45,18.90
2016,04,18,09,46,19.00
2016,04,18,09,47,19.10
2016,04,18,09,48,19.20
2016,04,18,09,49,19.20
2016,04,18,09,50,19.30
2016,04,18,09,51,19.30
2016,04,18,09,52,19.40
2016,04,18,09,53,19.50
2016,04,18,09,54,19.60
2016,04,18,09,55,19.60
2016,04,18,09,56,19.70
2016,04,18,09,57,19.80
2016,04,18,09,58,19.80
2016,04,18,09,59,19.90
2016,04,18,10,00,20.00
2016,04,18,10,01,20.00
2016,04,18,10,02,20.10
2016,04,18,10,03,20.20
2016,04,18,10,04,20.20
2016,04,18,10,05,20.20
2016,04,18,10,06,20.30
2016,04,18,10,07,20.50
2016,04,18,10,08,20.60
2016,04,18,10,09,20.70
2016,04,18,10,10,20.80
2016,04,18,10,11,20.80
2016,04,18,10,12,20.80
2016,04,18,10,13,20.80
2016,04,18,10,14,20.90
2016,04,18,10,15,20.90
2016,04,18,10,16,20.90
2016,04,18,10,17,21.00
2016,04,18,10,18,21.10
2016,04,18,10,19,21.10
2016,04,18,10,20,21.00
2016,04,18,10,21,20.90
2016,04,18,10,22,20.90
2016,04,18,10,23,20.90
2016,04,18,10,24,20.90
2016,04,18,10,25,20.90
2016,04,18,10,26,20.90
2016,04,18,10,27,20.90
2016,04,18,10,28,20.90
2016,04,18,10,29,20.90
2016,04,18,10,30,20.90
2016,04,18,10,31,21.00
2016,04,18,10,32,21.10
2016,04,18,10,33,21.20
2016,04,18,10,34,21.10
2016,04,18,10,35,21.00
2016,04,18,10,36,21.00
2016,04,18,10,37,21.10
2016,04,18,10,38,21.10
2016,04,18,10,39,21.10
2016,04,18,10,40,21.20
2016,04,18,10,41,21.20
2016,04,18,10,42,21.30
2016,04,18,10,43,21.40
2016,04,18,10,44,21.40
2016,04,18,10,45,21.50
2016,04,18,10,46,21.50
2016,04,18,10,47,21.50
2016,04,18,10,48,21.50
2016,04,18,10,49,21.50
2016,04,18,10,50,21.50
2016,04,18,10,51,21.50
2016,04,18,10,52,21.50
2016,04,18,10,53,21.40
2016,04,18,10,54,21.50
2016,04,18,10,55,21.50
2016,04,18,10,56,21.60
2016,04,18,10,57,21.70
2016,04,18,10,58,21.80
2016,04,18,10,59,21.80
2016,04,18,11,00,21.80
2016,04,18,11,01,21.80
2016,04,18,11,02,21.90
2016,04,18,11,03,21.90
2016,04,18,11,04,21.90
2016,04,18,11,05,21.90
2016,04,18,11,06,21.80
2016,04,18,11,07,21.80
2016,04,18,11,08,21.80
2016,04,18,11,09,21.80
2016,04,18,11,10,21.80
2016,04,18,11,11,21.90
2016,04,18,11,12,21.90
2016,04,18,11,13,22.00
2016,04,18,11,14,22.00
2016,04,18,11,15,22.00
2016,04,18,11,16,22.00
2016,04,18,11,17,22.10
2016,04,18,11,18,22.10
2016,04,18,11,19,22.20
2016,04,18,11,20,22.20
2016,04,18,11,21,22.20
2016,04,18,11,22,22.20
2016,04,18,11,23,22.20
2016,04,18,11,24,22.20
2016,04,18,11,25,22.20
2016,04,18,11,26,22.20
2016,04,18,11,27,22.30
2016,04,18,11,28,22.30
2016,04,18,11,29,22.50
2016,04,18,11,30,22.50
2016,04,18,11,31,22.60
2016,04,18,11,32,22.60
2016,04,18,11,33,22.60
2016,04,18,11,34,22.60
2016,04,18,11,35,22.70
2016,04,18,11,36,22.80
2016,04,18,11,37,22.80
2016,04,18,11,38,22.90
2016,04,18,11,39,22.90
2016,04,18,11,40,22.90
2016,04,18,11,41,22.80
2016,04,18,11,42,22.70
2016,04,18,11,43,22.60
2016,04,18,11,44,22.60
2016,04,18,11,45,22.70
2016,04,18,11,46,22.60
2016,04,18,11,47,22.60
2016,04,18,11,48,22.60
2016,04,18,11,49,22.50
2016,04,18,11,50,22.50
2016,04,18,11,51,22.40
2016,04,18,11,52,22.30
2016,04,18,11,53,22.20
2016,04,18,11,54,22.10
2016,04,18,11,55,22.20
2016,04,18,11,56,22.20
2016,04,18,11,57,22.30
2016,04,18,11,58,22.40
2016,04,18,11,59,22.50
2016,04,18,12,00,22.60
2016,04,18,12,01,22.60
2016,04,18,12,02,22.70
2016,04,18,12,03,22.60
2016,04,18,12,04,22.60
2016,04,18,12,05,22.60
2016,04,18,12,06,22.70
2016,04,18,12,07,22.60
2016,04,18,12,08,22.60
2016,04,18,12,09,22.60
2016,04,18,12,10,22.60
2016,04,18,12,11,22.60
2016,04,18,12,12,22.60
2016,04,18,12,13,22.70
2016,04,18,12,14,22.80
2016,04,18,12,15,22.80
2016,04,18,12,16,22.80
2016,04,18,12,17,22.70
2016,04,18,12,18,22.60
2016,04,18,12,19,22.60
2016,04,18,12,20,22.70
2016,04,18,12,21,22.70
2016,04,18,12,22,22.60
2016,04,18,12,23,22.60
2016,04,18,12,24,22.60
2016,04,18,12,25,22.60
2016,04,18,12,26,22.60
2016,04,18,12,27,22.60
2016,04,18,12,28,22.60
2016,04,18,12,29,22.70
2016,04,18,12,30,22.80
2016,04,18,12,31,23.00
2016,04,18,12,32,23.20
2016,04,18,12,33,23.30
2016,04,18,12,34,23.40
2016,04,18,12,35,23.40
2016,04,18,12,36,23.40
2016,04,18,12,37,23.40
2016,04,18,12,38,23.40
2016,04,18,12,39,23.50
2016,04,18,12,40,23.60
2016,04,18,12,41,23.60
2016,04,18,12,42,23.70
2016,04,18,12,43,23.70
2016,04,18,12,44,23.80
2016,04,18,12,45,23.80
2016,04,18,12,46,23.90
2016,04,18,12,47,23.90
2016,04,18,12,48,23.80
2016,04,18,12,49,23.80
2016,04,18,12,50,23.70
2016,04,18,12,51,23.70
2016,04,18,12,52,23.60
2016,04,18,12,53,23.60
2016,04,18,12,54,23.70
2016,04,18,12,55,23.70
2016,04,18,12,56,23.80
2016,04,18,12,57,23.90
2016,04,18,12,58,23.90
2016,04,18,12,59,23.90
2016,04,18,13,00,23.90
2016,04,18,13,01,23.90
2016,04,18,13,02,23.90
2016,04,18,13,03,23.90
2016,04,18,13,04,23.90
2016,04,18,13,05,23.90
2016,04,18,13,06,23.90
2016,04,18,13,07,23.90
2016,04,18,13,08,23.90
2016,04,18,13,09,23.90
2016,04,18,13,10,24.00
2016,04,18,13,11,24.10
2016,04,18,13,12,24.10
2016,04,18,13,13,24.20
2016,04,18,13,14,24.20
2016,04,18,13,15,24.30
2016,04,18,13,16,24.30
2016,04,18,13,17,24.30
2016,04,18,13,18,24.40
2016,04,18,13,19,24.40
2016,04,18,13,20,24.40
2016,04,18,13,21,24.40
2016,04,18,13,22,24.40
2016,04,18,13,23,24.40
2016,04,18,13,24,24.50
2016,04,18,13,25,24.50
2016,04,18,13,26,24.40
2016,04,18,13,27,24.40
2016,04,18,13,28,24.40
2016,04,18,13,29,24.50
2016,04,18,13,30,24.50
2016,04,18,13,31,24.50
2016,04,18,13,32,24.50
2016,04,18,13,33,24.50
2016,04,18,13,34,24.60
2016,04,18,13,35,24.60
2016,04,18,13,36,24.60
2016,04,18,13,37,24.70
2016,04,18,13,38,24.80
2016,04,18,13,39,24.80
2016,04,18,13,40,24.90
2016,04,18,13,41,24.90
2016,04,18,13,42,24.80
2016,04,18,13,43,24.80
2016,04,18,13,44,24.80
2016,04,18,13,45,24.90
2016,04,18,13,46,24.90
2016,04,18,13,47,24.80
2016,04,18,13,48,24.80
2016,04,18,13,49,24.80
2016,04,18,13,50,24.90
2016,04,18,13,51,24.80
2016,04,18,13,52,24.80
2016,04,18,13,53,24.90
2016,04,18,13,54,24.90
2016,04,18,13,55,25.00
2016,04,18,13,56,25.00
2016,04,18,13,57,25.10
2016,04,18,13,58,25.20
2016,04,18,13,59,25.20
2016,04,18,14,00,25.10
2016,04,18,14,01,25.10
2016,04,18,14,02,25.10
2016,04,18,14,03,25.10
2016,04,18,14,04,25.20
2016,04,18,14,05,25.30
2016,04,18,14,06,25.40
2016,04,18,14,07,25.40
2016,04,18,14,08,25.40
2016,04,18,14,09,25.40
2016,04,18,14,10,25.50
2016,04,18,14,11,25.50
2016,04,18,14,12,25.50
2016,04,18,14,13,25.60
2016,04,18,14,14,25.70
2016,04,18,14,15,25.80
2016,04,18,14,16,25.80
2016,04,18,14,17,25.80
2016,04,18,14,18,25.80
2016,04,18,14,19,25.70
2016,04,18,14,20,25.70
2016,04,18,14,21,25.70
2016,04,18,14,22,25.60
2016,04,18,14,23,25.60
2016,04,18,14,24,25.60
2016,04,18,14,25,25.50
2016,04,18,14,26,25.50
2016,04,18,14,27,25.50
2016,04,18,14,28,25.50
2016,04,18,14,29,25.60
2016,04,18,14,30,25.60
2016,04,18,14,31,25.60
2016,04,18,14,32,25.60
2016,04,18,14,33,25.70
2016,04,18,14,34,25.70
2016,04,18,14,35,25.80
2016,04,18,14,36,25.80
2016,04,18,14,37,25.90
2016,04,18,14,38,25.90
2016,04,18,14,39,25.90
2016,04,18,14,40,25.90
2016,04,18,14,41,26.00
2016,04,18,14,42,26.10
2016,04,18,14,43,26.10
2016,04,18,14,44,26.20
2016,04,18,14,45,26.20
2016,04,18,14,46,26.20
2016,04,18,14,47,26.20
2016,04,18,14,48,26.20
2016,04,18,14,49,26.20
2016,04,18,14,50,26.20
2016,04,18,14,51,26.20
2016,04,18,14,52,26.20
2016,04,18,14,53,26.30
2016,04,18,14,54,26.30
2016,04,18,14,55,26.30
2016,04,18,14,56,26.40
2016,04,18,14,57,26.40
2016,04,18,14,58,26.40
2016,04,18,14,59,26.40
2016,04,18,15,00,26.40
2016,04,18,15,01,26.40
2016,04,18,15,02,26.40
2016,04,18,15,03,26.30
2016,04,18,15,04,26.40
2016,04,18,15,05,26.40
2016,04,18,15,06,26.40
2016,04,18,15,07,26.30
2016,04,18,15,08,26.30
2016,04,18,15,09,26.20
2016,04,18,15,10,26.20
2016,04,18,15,11,26.20
2016,04,18,15,12,26.20
2016,04,18,15,13,26.10
2016,04,18,15,14,26.00
2016,04,18,15,15,26.00
2016,04,18,15,16,25.90
2016,04,18,15,17,25.90
2016,04,18,15,18,25.90
2016,04,18,15,19,25.80
2016,04,18,15,20,25.80
2016,04,18,15,21,25.70
2016,04,18,15,22,25.60
2016,04,18,15,23,25.60
2016,04,18,15,24,25.60
2016,04,18,15,25,25.60
2016,04,18,15,26,25.60
2016,04,18,15,27,25.60
2016,04,18,15,28,25.70
2016,04,18,15,29,25.70
2016,04,18,15,30,25.60
2016,04,18,15,31,25.60
2016,04,18,15,32,25.60
2016,04,18,15,33,25.50
2016,04,18,15,34,25.50
2016,04,18,15,35,25.60
2016,04,18,15,36,25.70
2016,04,18,15,37,25.70
2016,04,18,15,38,25.80
2016,04,18,15,39,25.80
2016,04,18,15,40,25.90
2016,04,18,15,41,25.90
2016,04,18,15,42,26.00
2016,04,18,15,43,26.10
2016,04,18,15,44,26.20
2016,04,18,15,45,26.20
2016,04,18,15,46,26.20
2016,04,18,15,47,26.20
2016,04,18,15,48,26.10
2016,04,18,15,49,26.00
2016,04,18,15,50,25.90
2016,04,18,15,51,25.90
2016,04,18,15,52,25.80
2016,04,18,15,53,25.80
2016,04,18,15,54,25.70
2016,04,18,15,55,25.70
2016,04,18,15,56,25.70
2016,04,18,15,57,25.70
2016,04,18,15,58,25.60
2016,04,18,15,59,25.60
2016,04,18,16,00,25.60
2016,04,18,16,01,25.60
2016,04,18,16,02,25.60
2016,04,18,16,03,25.60
2016,04,18,16,04,25.60
2016,04,18,16,05,25.70
2016,04,18,16,06,25.70
2016,04,18,16,07,25.70
2016,04,18,16,08,25.70
2016,04,18,16,09,25.80
2016,04,18,16,10,25.80
2016,04,18,16,11,25.70
2016,04,18,16,12,25.70
2016,04,18,16,13,25.70
2016,04,18,16,14,25.70
2016,04,18,16,15,25.70
2016,04,18,16,16,25.70
2016,04,18,16,17,25.80
2016,04,18,16,18,25.80
2016,04,18,16,19,25.80
2016,04,18,16,20,25.80
2016,04,18,16,21,25.80
2016,04,18,16,22,25.80
2016,04,18,16,23,25.70
2016,04,18,16,24,25.70
2016,04,18,16,25,25.70
2016,04,18,16,26,25.70
2016,04,18,16,27,25.70
2016,04,18,16,28,25.70
2016,04,18,16,29,25.80
2016,04,18,16,30,25.90
2016,04,18,16,31,25.90
2016,04,18,16,32,25.90
2016,04,18,16,33,26.00
2016,04,18,16,34,26.10
2016,04,18,16,35,26.10
2016,04,18,16,36,26.20
2016,04,18,16,37,26.20
2016,04,18,16,38,26.20
2016,04,18,16,39,26.30
2016,04,18,16,40,26.30
2016,04,18,16,41,26.30
2016,04,18,16,42,26.30
2016,04,18,16,43,26.40
2016,04,18,16,44,26.40
2016,04,18,16,45,26.30
2016,04,18,16,46,26.30
2016,04,18,16,47,26.20
2016,04,18,16,48,26.30
2016,04,18,16,49,26.30
2016,04,18,16,50,26.40
2016,04,18,16,51,26.50
2016,04,18,16,52,26.50
2016,04,18,16,53,26.60
2016,04,18,16,54,26.60
2016,04,18,16,55,26.70
2016,04,18,16,56,26.70
2016,04,18,16,57,26.70
2016,04,18,16,58,26.60
2016,04,18,16,59,26.50
2016,04,18,17,00,26.50
2016,04,18,17,01,26.40
2016,04,18,17,02,26.30
2016,04,18,17,03,26.40
2016,04,18,17,04,26.40
2016,04,18,17,05,26.40
2016,04,18,17,06,26.50
2016,04,18,17,07,26.50
2016,04,18,17,08,26.50
2016,04,18,17,09,26.50
2016,04,18,17,10,26.60
2016,04,18,17,11,26.60
2016,04,18,17,12,26.70
2016,04,18,17,13,26.70
2016,04,18,17,14,26.60
2016,04,18,17,15,26.50
2016,04,18,17,16,26.50
2016,04,18,17,17,26.40
2016,04,18,17,18,26.30
2016,04,18,17,19,26.30
2016,04,18,17,20,26.20
2016,04,18,17,21,26.10
2016,04,18,17,22,26.10
2016,04,18,17,23,26.00